Regional Weather Roundup
Issued by NWS Raleigh/Durham, NC

Home | Current Version | Previous Version | Text Only | Print | Product List | Glossary On
Versions: 1 2 3 4 5 6 7 8 9 10 11 12 13 14 15 16 17 18 19 20 21 22 23 24 25 26 27 28 29 30 31 32 33 34 35 36 37 38 39 40 41 42 43 44 45 46 47 48 49 50
000
ASUS42 KRAH 231410
RWRRAH
NORTH CAROLINA WEATHER ROUNDUP
NATIONAL WEATHER SERVICE RALEIGH NC
900 AM EST SUN NOV 23 2014

NOTE: "FAIR" INDICATES FEW OR NO CLOUDS BELOW 12,000 FEET WITH NO
SIGNIFICANT WEATHER AND/OR OBSTRUCTIONS TO VISIBILITY.

NCZ001-053-055-056-065-067-231500-
WESTERN NORTH CAROLINA

CITY           SKY/WX    TMP DP  RH WIND       PRES   REMARKS
ASHEVILLE      CLOUDY    41  40  96 SE5       30.16F FOG
JEFFERSON      CLOUDY    45  40  83 SE3       30.16F
MORGANTON      DRIZZLE   42  38  84 CALM      30.24F
HICKORY        LGT RAIN  43  36  76 CALM      30.20F
RUTHERFORDTON  CLOUDY    41  37  84 CALM      30.19S
MOUNT AIRY     CLOUDY    41  32  70 CALM      30.23S
BOONE          LGT RAIN  43  42  98 CALM      30.17F
$$

NCZ021-022-025-041-071-084-088-231500-
CENTRAL NORTH CAROLINA

CITY           SKY/WX    TMP DP  RH WIND       PRES   REMARKS
CHARLOTTE      CLOUDY    45  39  81 NE7       30.20F
GREENSBORO     CLOUDY    46  28  49 CALM      30.21S
WINSTON-SALEM  CLOUDY    45  24  43 CALM      30.21F
RALEIGH-DURHAM CLOUDY    44  32  62 CALM      30.25S
FORT BRAGG     DRIZZLE   45  36  71 E2        30.24S
FAYETTEVILLE   LGT RAIN  45  37  73 N6        30.24S
BURLINGTON     CLOUDY    45  28  51 CALM      30.24S
LAURINBURG     LGT RAIN  46  44  93 NE7       30.23F FOG
$$

NCZ011-015-027-028-043-044-047-080-103-231500-
NORTHEASTERN NORTH CAROLINA

CITY           SKY/WX    TMP DP  RH WIND       PRES   REMARKS
ROCKY MT-WILSO CLOUDY    43  31  62 CALM      30.26S
GREENVILLE     CLOUDY    43  37  81 CALM      30.26F
WASHINGTON     CLOUDY    46  41  82 CALM      30.27R
ELIZABETH CITY CLOUDY    48  40  73 CALM      30.27F
MANTEO         CLOUDY    55  50  85 CALM      30.28F
CAPE HATTERAS  CLOUDY    58  54  86 E5        30.28F
$$

NCZ078-087-090-091-093-098-101-231500-
SOUTHEASTERN NORTH CAROLINA

CITY           SKY/WX    TMP DP  RH WIND       PRES   REMARKS
LUMBERTON      CLOUDY    49  47  93 E3        30.23S FOG
GOLDSBORO      CLOUDY    45  42  88 CALM      30.23F
KINSTON        CLOUDY    46  39  76 CALM      30.26F
KENANSVILLE    CLOUDY    47  43  85 CALM      30.26F
NEW BERN       LGT RAIN  52  47  83 NW3       30.26S
CHERRY POINT   CLOUDY    55  52  89 CALM      30.25F
BEAUFORT       LGT RAIN  62  55  77 SE7       30.25S
JACKSONVILLE   CLOUDY    52  50  93 N3        30.24S
WILMINGTON     LGT RAIN  60  57  89 SE6       30.24S
$$



USA.gov is the U.S. government's official web portal to all federal, state and local government web resources and services.